| time (UTC) | temp F | wind direction | speed MPH | gust MPH | rain 1hr in | rain 24hr in | rain mn in | humidity % | barometer mb |
| 20260831182730 | 77 | 99 | 0.0 | 2.0 | 0.00 | 0.04 | 0.00 | 38 | 1020.6 |
| 20260831182229 | 78 | 146 | 1.0 | 3.0 | 0.00 | 0.04 | 0.00 | 37 | 1020.6 |
| 20260831181730 | 77 | 130 | 1.0 | 4.0 | 0.00 | 0.04 | 0.00 | 36 | 1020.6 |
| 20260831181230 | 78 | 90 | 1.0 | 4.0 | 0.00 | 0.04 | 0.00 | 36 | 1020.6 |
| 20260831180959 | 78 | 116 | 0.0 | 3.0 | 0.00 | 0.04 | 0.00 | 36 | 1020.6 |
| 20260831180230 | 78 | 88 | 1.0 | 4.0 | 0.00 | 0.04 | 0.00 | 39 | 1020.6 |
| 20260831175728 | 76 | 89 | 1.0 | 4.0 | 0.00 | 0.04 | 0.00 | 37 | 1020.6 |
| 20260831175502 | 76 | 72 | 1.0 | 4.0 | 0.00 | 0.04 | 0.00 | 39 | 1020.6 |
| 20260831174729 | 75 | 95 | 2.0 | 4.0 | 0.00 | 0.04 | 0.00 | 37 | 1020.6 |
| 20260831174229 | 75 | 110 | 1.0 | 4.0 | 0.00 | 0.04 | 0.00 | 40 | 1020.6 |
| 20260831173728 | 75 | 98 | 1.0 | 5.0 | 0.00 | 0.04 | 0.00 | 40 | 1020.6 |
| 20260831173227 | 75 | 105 | 2.0 | 5.0 | 0.00 | 0.04 | 0.00 | 40 | 1020.6 |
| 20260831172730 | 75 | 120 | 2.0 | 6.0 | 0.00 | 0.04 | 0.00 | 39 | 1020.6 |
| 20260831172228 | 75 | 86 | 2.0 | 6.0 | 0.00 | 0.04 | 0.00 | 39 | 1020.6 |
| 20260831171728 | 76 | 100 | 1.0 | 3.0 | 0.00 | 0.04 | 0.00 | 40 | 1020.6 |
| 20260831171500 | 76 | 90 | 1.0 | 4.0 | 0.00 | 0.04 | 0.00 | 40 | 1020.6 |
| 20260831170726 | 75 | 101 | 1.0 | 4.0 | 0.00 | 0.04 | 0.00 | 39 | 1020.6 |
| 20260831170225 | 76 | 109 | 1.0 | 4.0 | 0.00 | 0.04 | 0.00 | 38 | 1020.6 |
| 20260831165728 | 76 | 103 | 0.0 | 2.0 | 0.00 | 0.04 | 0.00 | 39 | 1020.6 |
| 20260831165723 | 76 | 98 | 0.0 | 2.0 | 0.00 | 0.04 | 0.00 | 39 | 1020.6 |
| 20260831164724 | 76 | 219 | 0.0 | 2.0 | 0.00 | 0.04 | 0.00 | 39 | 1020.6 |
| 20260831164221 | 75 | 118 | 1.0 | 4.0 | 0.00 | 0.04 | 0.00 | 40 | 1020.6 |
| 20260831163721 | 75 | 96 | 1.0 | 4.0 | 0.00 | 0.04 | 0.00 | 38 | 1020.6 |
| 20260831163222 | 75 | 82 | 0.0 | 2.0 | 0.00 | 0.04 | 0.00 | 39 | 1020.6 |
| 20260831162723 | 75 | 96 | 0.0 | 1.0 | 0.00 | 0.04 | 0.00 | 39 | 1020.6 |
| 20260831162220 | 76 | 110 | 0.0 | 0.0 | 0.00 | 0.04 | 0.00 | 40 | 1020.6 |
| 20260831161720 | 75 | 112 | 1.0 | 3.0 | 0.00 | 0.04 | 0.00 | 41 | 1020.6 |
| 20260831161451 | 75 | 103 | 1.0 | 3.0 | 0.00 | 0.04 | 0.00 | 41 | 1020.6 |
| 20260831160720 | 76 | 113 | 0.0 | 2.0 | 0.00 | 0.04 | 0.00 | 40 | 1020.6 |
| 20260831160218 | 75 | 98 | 0.0 | 2.0 | 0.00 | 0.04 | 0.00 | 40 | 1020.6 |
| 20260831155719 | 75 | 110 | 0.0 | 1.0 | 0.00 | 0.04 | 0.00 | 40 | 1020.6 |
| 20260831155219 | 75 | 233 | 0.0 | 2.0 | 0.00 | 0.04 | 0.00 | 40 | 1020.6 |
| 20260831154720 | 74 | 131 | 0.0 | 2.0 | 0.00 | 0.04 | 0.00 | 39 | 1020.6 |
| 20260831154221 | 74 | 97 | 0.0 | 2.0 | 0.00 | 0.04 | 0.00 | 40 | 1020.6 |
| 20260831153720 | 74 | 97 | 0.0 | 2.0 | 0.00 | 0.04 | 0.00 | 40 | 1020.6 |
| 20260831153219 | 75 | 98 | 0.0 | 0.0 | 0.00 | 0.04 | 0.00 | 39 | 1020.6 |
| 20260831152949 | 75 | 97 | 0.0 | 0.0 | 0.00 | 0.04 | 0.00 | 38 | 1020.6 |
| 20260831152217 | 75 | 291 | 0.0 | 0.0 | 0.00 | 0.04 | 0.00 | 38 | 1020.6 |
| 20260831151722 | 76 | 291 | 0.0 | 0.0 | 0.00 | 0.04 | 0.00 | 37 | 1020.6 |
| 20260831151718 | 76 | 291 | 0.0 | 0.0 | 0.00 | 0.04 | 0.00 | 36 | 1020.6 |
| 20260831150715 | 75 | 291 | 0.0 | 0.0 | 0.00 | 0.04 | 0.00 | 39 | 1020.6 |
| 20260831150216 | 74 | 291 | 0.0 | 0.0 | 0.00 | 0.04 | 0.00 | 39 | 1020.6 |
| 20260831145715 | 74 | 291 | 0.0 | 0.0 | 0.00 | 0.04 | 0.00 | 41 | 1020.6 |
| 20260831145216 | 74 | 328 | 0.0 | 0.0 | 0.00 | 0.04 | 0.00 | 39 | 1020.6 |
| 20260831144716 | 73 | 324 | 0.0 | 0.0 | 0.00 | 0.04 | 0.00 | 40 | 1020.6 |
| 20260831144445 | 73 | 324 | 0.0 | 0.0 | 0.00 | 0.04 | 0.00 | 41 | 1020.6 |
| 20260831143712 | 73 | 323 | 0.0 | 1.0 | 0.00 | 0.04 | 0.00 | 41 | 1020.6 |
| 20260831143212 | 72 | 324 | 0.0 | 2.0 | 0.00 | 0.04 | 0.00 | 44 | 1020.6 |
| 20260831142712 | 71 | 327 | 1.0 | 4.0 | 0.00 | 0.04 | 0.00 | 44 | 1020.6 |
| 20260831142212 | 71 | 316 | 1.0 | 4.0 | 0.00 | 0.04 | 0.00 | 44 | 1020.6 |
| 20260831141712 | 70 | 342 | 1.0 | 3.0 | 0.00 | 0.04 | 0.00 | 45 | 1020.6 |
| 20260831141211 | 69 | 302 | 0.0 | 2.0 | 0.00 | 0.04 | 0.00 | 47 | 1020.6 |
| 20260831140713 | 68 | 281 | 0.0 | 0.0 | 0.00 | 0.04 | 0.00 | 49 | 1020.6 |
| 20260831140212 | 68 | 262 | 0.0 | 0.0 | 0.00 | 0.04 | 0.00 | 50 | 1020.6 |
| 20260831135941 | 67 | 262 | 0.0 | 0.0 | 0.00 | 0.04 | 0.00 | 49 | 1020.6 |
| 20260831135828 | 67 | 262 | 0.0 | 0.0 | 0.00 | 0.04 | 0.00 | 51 | 1020.6 |
| 20260831134710 | 67 | 249 | 0.0 | 1.0 | 0.00 | 0.04 | 0.00 | 52 | 1020.6 |
| 20260831134210 | 67 | 250 | 0.0 | 1.0 | 0.00 | 0.04 | 0.00 | 50 | 1020.6 |
| 20260831133710 | 67 | 249 | 0.0 | 1.0 | 0.00 | 0.04 | 0.00 | 48 | 1020.6 |
| 20260831133210 | 67 | 249 | 0.0 | 0.0 | 0.00 | 0.04 | 0.00 | 47 | 1020.6 |
| 20260831132708 | 68 | 250 | 0.0 | 0.0 | 0.00 | 0.04 | 0.00 | 47 | 1020.6 |
| 20260831132209 | 68 | 250 | 0.0 | 0.0 | 0.00 | 0.04 | 0.00 | 45 | 1020.6 |
| 20260831131707 | 69 | 250 | 0.0 | 0.0 | 0.00 | 0.04 | 0.00 | 44 | 1020.6 |
| 20260831131208 | 69 | 250 | 0.0 | 0.0 | 0.00 | 0.04 | 0.00 | 43 | 1020.6 |
| 20260831130707 | 68 | 250 | 0.0 | 0.0 | 0.00 | 0.04 | 0.00 | 44 | 1020.6 |
| 20260831130208 | 68 | 249 | 0.0 | 0.0 | 0.00 | 0.04 | 0.00 | 44 | 1020.6 |
| 20260831125708 | 67 | 250 | 0.0 | 1.0 | 0.00 | 0.04 | 0.00 | 45 | 1020.6 |
| 20260831125206 | 67 | 250 | 0.0 | 1.0 | 0.00 | 0.04 | 0.00 | 45 | 1020.6 |
| 20260831124707 | 67 | 259 | 0.0 | 1.0 | 0.00 | 0.04 | 0.00 | 46 | 1020.6 |
| 20260831124208 | 67 | 270 | 0.0 | 0.0 | 0.00 | 0.04 | 0.00 | 47 | 1020.6 |
| 20260831123937 | 67 | 270 | 0.0 | 0.0 | 0.00 | 0.04 | 0.00 | 47 | 1020.6 |
| 20260831123207 | 67 | 269 | 0.0 | 0.0 | 0.00 | 0.04 | 0.00 | 46 | 1020.6 |
| 20260831122708 | 67 | 269 | 0.0 | 1.0 | 0.00 | 0.04 | 0.00 | 45 | 1020.6 |
| 20260831122438 | 67 | 269 | 0.0 | 1.0 | 0.00 | 0.04 | 0.00 | 46 | 1020.6 |
| 20260831121708 | 67 | 274 | 0.0 | 0.0 | 0.00 | 0.04 | 0.00 | 46 | 1020.6 |
| 20260831121208 | 67 | 278 | 0.0 | 1.0 | 0.00 | 0.04 | 0.00 | 44 | 1020.6 |
| 20260831120939 | 67 | 271 | 1.0 | 3.0 | 0.00 | 0.04 | 0.00 | 45 | 1020.6 |
| 20260831120207 | 67 | 278 | 1.0 | 3.0 | 0.00 | 0.04 | 0.00 | 46 | 1020.6 |
| 20260831115706 | 66 | 281 | 1.0 | 3.0 | 0.00 | 0.04 | 0.00 | 47 | 1020.6 |
| 20260831115208 | 65 | 278 | 1.0 | 3.0 | 0.00 | 0.04 | 0.00 | 49 | 1020.6 |
| 20260831114708 | 65 | 283 | 1.0 | 4.0 | 0.00 | 0.04 | 0.00 | 50 | 1020.6 |
| 20260831114208 | 65 | 284 | 1.0 | 4.0 | 0.00 | 0.04 | 0.00 | 51 | 1020.6 |
| 20260831113707 | 66 | 285 | 1.0 | 3.0 | 0.00 | 0.04 | 0.00 | 49 | 1020.6 |
| 20260831113206 | 65 | 271 | 1.0 | 3.0 | 0.00 | 0.04 | 0.00 | 49 | 1020.6 |
| 20260831112709 | 64 | 282 | 2.0 | 4.0 | 0.00 | 0.04 | 0.00 | 51 | 1020.6 |
| 20260831112208 | 65 | 288 | 2.0 | 4.0 | 0.00 | 0.04 | 0.00 | 51 | 1020.6 |
| 20260831111707 | 64 | 275 | 2.0 | 4.0 | 0.00 | 0.04 | 0.00 | 51 | 1020.6 |
| 20260831111206 | 65 | 293 | 2.0 | 5.0 | 0.00 | 0.04 | 0.00 | 50 | 1020.6 |
| 20260831110707 | 66 | 290 | 2.0 | 5.0 | 0.00 | 0.04 | 0.00 | 49 | 1020.6 |
| 20260831110208 | 66 | 290 | 2.0 | 5.0 | 0.00 | 0.04 | 0.00 | 47 | 1020.6 |
| 20260831105706 | 67 | 278 | 1.0 | 3.0 | 0.00 | 0.04 | 0.00 | 47 | 1020.6 |
| 20260831105206 | 67 | 276 | 1.0 | 3.0 | 0.00 | 0.04 | 0.00 | 46 | 1020.6 |
| 20260831104708 | 66 | 277 | 1.0 | 3.0 | 0.00 | 0.04 | 0.00 | 47 | 1020.6 |
| 20260831104207 | 65 | 281 | 0.0 | 2.0 | 0.00 | 0.04 | 0.00 | 49 | 1020.6 |
| 20260831103706 | 66 | 262 | 0.0 | 1.0 | 0.00 | 0.04 | 0.00 | 49 | 1020.6 |
| 20260831103206 | 65 | 262 | 0.0 | 0.0 | 0.00 | 0.04 | 0.00 | 49 | 1020.6 |
| 20260831102709 | 65 | 262 | 0.0 | 0.0 | 0.00 | 0.04 | 0.00 | 49 | 1020.6 |
| 20260831102207 | 65 | 262 | 0.0 | 0.0 | 0.00 | 0.04 | 0.00 | 50 | 1020.6 |
| 20260831101707 | 65 | 262 | 0.0 | 0.0 | 0.00 | 0.04 | 0.00 | 51 | 1020.6 |
| 20260831101208 | 65 | 262 | 0.0 | 0.0 | 0.00 | 0.04 | 0.00 | 51 | 1020.6 |
| 20260831100707 | 65 | 262 | 0.0 | 0.0 | 0.00 | 0.04 | 0.00 | 50 | 1020.6 |
| 20260831100206 | 66 | 307 | 0.0 | 0.0 | 0.00 | 0.04 | 0.00 | 48 | 1020.6 |
| 20260831095706 | 66 | 307 | 0.0 | 0.0 | 0.00 | 0.04 | 0.00 | 48 | 1020.6 |
| 20260831095202 | 66 | 307 | 0.0 | 0.0 | 0.00 | 0.04 | 0.00 | 48 | 1020.6 |
| 20260831094936 | 65 | 308 | 0.0 | 0.0 | 0.00 | 0.04 | 0.00 | 49 | 1020.6 |
| 20260831094202 | 65 | 307 | 0.0 | 0.0 | 0.00 | 0.04 | 0.00 | 50 | 1020.6 |
| 20260831093703 | 64 | 308 | 0.0 | 0.0 | 0.00 | 0.04 | 0.00 | 52 | 1020.6 |
| 20260831093203 | 65 | 337 | 0.0 | 1.0 | 0.00 | 0.04 | 0.00 | 51 | 1020.6 |
| 20260831092704 | 64 | 287 | 1.0 | 3.0 | 0.00 | 0.04 | 0.00 | 52 | 1020.6 |
| 20260831092202 | 65 | 287 | 1.0 | 3.0 | 0.00 | 0.04 | 0.00 | 51 | 1020.6 |
| 20260831091702 | 65 | 282 | 0.0 | 3.0 | 0.00 | 0.04 | 0.00 | 51 | 1020.6 |
| 20260831091203 | 64 | 285 | 0.0 | 3.0 | 0.00 | 0.04 | 0.00 | 53 | 1020.6 |
| 20260831090705 | 64 | 296 | 1.0 | 4.0 | 0.00 | 0.04 | 0.00 | 55 | 1020.6 |
| 20260831090203 | 64 | 282 | 2.0 | 4.0 | 0.00 | 0.04 | 0.00 | 56 | 1020.6 |
| 20260831085703 | 64 | 286 | 2.0 | 4.0 | 0.00 | 0.04 | 0.00 | 58 | 1020.6 |
| 20260831085200 | 64 | 291 | 1.0 | 4.0 | 0.00 | 0.04 | 0.00 | 60 | 1020.6 |
| 20260831084701 | 63 | 283 | 1.0 | 4.0 | 0.00 | 0.04 | 0.00 | 62 | 1020.6 |
| 20260831084201 | 63 | 289 | 0.0 | 1.0 | 0.00 | 0.04 | 0.00 | 63 | 1020.6 |
| 20260831083933 | 63 | 287 | 1.0 | 3.0 | 0.00 | 0.04 | 0.00 | 63 | 1020.6 |
| 20260831083201 | 64 | 300 | 1.0 | 3.0 | 0.00 | 0.04 | 0.00 | 61 | 1020.6 |
| 20260831082701 | 64 | 297 | 1.0 | 3.0 | 0.00 | 0.04 | 0.00 | 61 | 1020.6 |
| 20260831082201 | 64 | 283 | 0.0 | 2.0 | 0.00 | 0.04 | 0.00 | 61 | 1020.6 |
| 20260831081702 | 64 | 334 | 0.0 | 0.0 | 0.00 | 0.04 | 0.00 | 62 | 1020.6 |
| 20260831081433 | 64 | 343 | 0.0 | 0.0 | 0.00 | 0.04 | 0.00 | 63 | 1020.6 |
| 20260831080701 | 64 | 343 | 0.0 | 0.0 | 0.00 | 0.04 | 0.00 | 64 | 1020.6 |
| 20260831080201 | 64 | 343 | 0.0 | 0.0 | 0.00 | 0.04 | 0.00 | 65 | 1020.6 |
| 20260831075702 | 64 | 343 | 0.0 | 0.0 | 0.00 | 0.04 | 0.00 | 66 | 1020.6 |
| 20260831075202 | 63 | 343 | 0.0 | 0.0 | 0.00 | 0.04 | 0.00 | 66 | 1020.6 |
| 20260831074659 | 63 | 343 | 0.0 | 0.0 | 0.00 | 0.04 | 0.00 | 67 | 1020.6 |
| 20260831074159 | 64 | 30 | 0.0 | 0.0 | 0.00 | 0.04 | 0.00 | 65 | 1020.6 |
| 20260831073700 | 64 | 30 | 0.0 | 0.0 | 0.00 | 0.04 | 0.00 | 64 | 1020.6 |
| 20260831073159 | 64 | 30 | 0.0 | 0.0 | 0.00 | 0.04 | 0.00 | 63 | 1020.6 |
| 20260831072659 | 64 | 52 | 0.0 | 0.0 | 0.00 | 0.04 | 0.00 | 62 | 1020.6 |
| 20260831072158 | 64 | 51 | 0.0 | 0.0 | 0.00 | 0.04 | 0.00 | 61 | 1020.6 |
| 20260831071700 | 65 | 51 | 0.0 | 1.0 | 0.00 | 0.04 | 0.00 | 59 | 1020.6 |
| 20260831071430 | 65 | 51 | 0.0 | 1.0 | 0.00 | 0.04 | 0.00 | 57 | 1020.6 |
| 20260831070658 | 66 | 90 | 0.0 | 0.0 | 0.00 | 0.04 | 0.00 | 54 | 1020.6 |
| 20260831070159 | 65 | 90 | 0.0 | 0.0 | 0.00 | 0.04 | 0.00 | 53 | 1020.6 |
| 20260831065658 | 65 | 90 | 0.0 | 0.0 | 0.00 | 0.04 | 0.00 | 56 | 1020.6 |
| 20260831065156 | 65 | 90 | 0.0 | 3.0 | 0.00 | 0.04 | 0.00 | 57 | 1020.6 |
| 20260831064659 | 66 | 90 | 0.0 | 3.0 | 0.00 | 0.04 | 0.00 | 55 | 1020.6 |
| 20260831064158 | 67 | 17 | 0.0 | 3.0 | 0.00 | 0.04 | 0.00 | 48 | 1020.6 |
| 20260831063658 | 69 | 82 | 1.0 | 6.0 | 0.00 | 0.04 | 0.00 | 46 | 1020.6 |
| 20260831063156 | 70 | 112 | 1.0 | 6.0 | 0.00 | 0.04 | 0.00 | 43 | 1020.6 |
| 20260831062656 | 71 | 79 | 1.0 | 6.0 | 0.00 | 0.04 | 0.00 | 39 | 1020.6 |
| 20260831062156 | 71 | 85 | 1.0 | 5.0 | 0.00 | 0.04 | 0.00 | 41 | 1020.6 |
| 20260831061659 | 71 | 267 | 1.0 | 5.0 | 0.00 | 0.04 | 0.00 | 41 | 1020.6 |
| 20260831061155 | 70 | 273 | 2.0 | 5.0 | 0.00 | 0.04 | 0.00 | 41 | 1020.6 |
| 20260831060654 | 70 | 327 | 2.0 | 9.0 | 0.00 | 0.04 | 0.00 | 43 | 1020.6 |
| 20260831060154 | 70 | 262 | 2.0 | 9.0 | 0.00 | 0.04 | 0.00 | 43 | 1020.6 |
| 20260831055655 | 70 | 271 | 2.0 | 7.0 | 0.00 | 0.04 | 0.04 | 43 | 1020.6 |
| 20260831055426 | 70 | 285 | 3.0 | 7.0 | 0.00 | 0.04 | 0.04 | 44 | 1020.6 |
| 20260831054655 | 69 | 250 | 4.0 | 10.0 | 0.00 | 0.04 | 0.04 | 44 | 1020.6 |
| 20260831054427 | 68 | 213 | 5.0 | 10.0 | 0.00 | 0.04 | 0.04 | 48 | 1020.6 |
| 20260831053653 | 68 | 295 | 4.0 | 10.0 | 0.00 | 0.04 | 0.04 | 50 | 1020.6 |
| 20260831053425 | 68 | 258 | 3.0 | 9.0 | 0.00 | 0.04 | 0.04 | 50 | 1020.6 |
| 20260831052655 | 69 | 297 | 3.0 | 8.0 | 0.00 | 0.04 | 0.04 | 50 | 1020.6 |
| 20260831052423 | 69 | 283 | 3.0 | 6.0 | 0.00 | 0.04 | 0.04 | 49 | 1020.6 |
| 20260831051654 | 69 | 278 | 4.0 | 8.0 | 0.00 | 0.04 | 0.04 | 48 | 1020.6 |
| 20260831051152 | 70 | 288 | 5.0 | 11.0 | 0.00 | 0.04 | 0.04 | 47 | 1020.6 |
| 20260831050653 | 70 | 280 | 6.0 | 12.0 | 0.00 | 0.04 | 0.04 | 47 | 1020.6 |
| 20260831050152 | 70 | 302 | 7.0 | 12.0 | 0.00 | 0.04 | 0.04 | 47 | 1020.6 |
| 20260831045927 | 70 | 290 | 5.0 | 11.0 | 0.00 | 0.04 | 0.04 | 47 | 1020.6 |
| 20260831045704 | 70 | 290 | 5.0 | 11.0 | 0.00 | 0.04 | 0.04 | 47 | 1020.6 |
| 20260831045151 | 70 | 298 | 3.0 | 9.0 | 0.00 | 0.04 | 0.04 | 47 | 1020.6 |
| 20260831044650 | 69 | 281 | 2.0 | 7.0 | 0.00 | 0.04 | 0.04 | 47 | 1020.6 |
| 20260831044421 | 69 | 264 | 2.0 | 7.0 | 0.00 | 0.04 | 0.04 | 51 | 1020.6 |
| 20260831043650 | 67 | 297 | 2.0 | 5.0 | 0.00 | 0.04 | 0.04 | 55 | 1020.6 |
| 20260831043149 | 67 | 281 | 3.0 | 5.0 | 0.00 | 0.04 | 0.04 | 58 | 1020.6 |
| 20260831042649 | 67 | 302 | 1.0 | 5.0 | 0.00 | 0.04 | 0.04 | 64 | 1020.6 |
| 20260831042149 | 67 | 290 | 0.0 | 3.0 | 0.00 | 0.04 | 0.04 | 63 | 1020.6 |
| 20260831041649 | 67 | 271 | 0.0 | 0.0 | 0.00 | 0.04 | 0.04 | 63 | 1020.6 |
| 20260831041418 | 67 | 271 | 0.0 | 0.0 | 0.00 | 0.04 | 0.04 | 64 | 1020.6 |
| 20260831040650 | 67 | 271 | 0.0 | 0.0 | 0.00 | 0.04 | 0.04 | 65 | 1020.6 |
| 20260831040147 | 67 | 275 | 0.0 | 0.0 | 0.00 | 0.04 | 0.04 | 65 | 1020.6 |
| 20260831035649 | 67 | 275 | 0.0 | 0.0 | 0.00 | 0.04 | 0.04 | 65 | 1020.6 |
| 20260831035148 | 67 | 275 | 0.0 | 0.0 | 0.00 | 0.04 | 0.04 | 65 | 1020.6 |
| 20260831034649 | 66 | 276 | 0.0 | 0.0 | 0.00 | 0.04 | 0.04 | 66 | 1020.6 |
| 20260831034148 | 66 | 276 | 0.0 | 0.0 | 0.00 | 0.04 | 0.04 | 67 | 1020.6 |
| 20260831033648 | 66 | 276 | 0.0 | 0.0 | 0.00 | 0.04 | 0.04 | 67 | 1020.6 |
| 20260831033149 | 66 | 276 | 0.0 | 0.0 | 0.00 | 0.04 | 0.04 | 67 | 1020.6 |
| 20260831032651 | 66 | 276 | 0.0 | 0.0 | 0.00 | 0.04 | 0.04 | 67 | 1020.6 |
| 20260831032149 | 65 | 276 | 0.0 | 0.0 | 0.00 | 0.04 | 0.04 | 69 | 1020.6 |
| 20260831031649 | 65 | 277 | 0.0 | 0.0 | 0.00 | 0.04 | 0.04 | 71 | 1020.6 |
| 20260831031149 | 65 | 276 | 0.0 | 0.0 | 0.00 | 0.04 | 0.04 | 70 | 1020.6 |
| 20260831030650 | 64 | 277 | 0.0 | 0.0 | 0.00 | 0.04 | 0.04 | 70 | 1020.6 |
| 20260831030148 | 64 | 287 | 0.0 | 0.0 | 0.00 | 0.04 | 0.04 | 70 | 1020.6 |
| 20260831025649 | 64 | 258 | 0.0 | 0.0 | 0.00 | 0.04 | 0.04 | 71 | 1020.6 |
| 20260831025148 | 64 | 258 | 0.0 | 0.0 | 0.00 | 0.04 | 0.04 | 70 | 1020.6 |
| 20260831024650 | 64 | 258 | 0.0 | 0.0 | 0.00 | 0.04 | 0.04 | 71 | 1020.6 |
| 20260831024147 | 64 | 258 | 0.0 | 0.0 | 0.00 | 0.04 | 0.04 | 72 | 1020.6 |
| 20260831023647 | 64 | 229 | 0.0 | 0.0 | 0.00 | 0.04 | 0.04 | 73 | 1020.6 |
| 20260831023149 | 64 | 229 | 0.0 | 0.0 | 0.00 | 0.04 | 0.04 | 73 | 1020.6 |
| 20260831022649 | 65 | 229 | 0.0 | 0.0 | 0.00 | 0.04 | 0.04 | 72 | 1020.6 |
| 20260831022148 | 65 | 229 | 0.0 | 0.0 | 0.00 | 0.04 | 0.04 | 72 | 1020.6 |
| 20260831021647 | 65 | 229 | 0.0 | 0.0 | 0.00 | 0.04 | 0.04 | 70 | 1020.6 |
| 20260831021149 | 65 | 229 | 0.0 | 0.0 | 0.00 | 0.04 | 0.04 | 69 | 1020.6 |
| 20260831020650 | 65 | 229 | 0.0 | 0.0 | 0.00 | 0.04 | 0.04 | 68 | 1020.6 |
| 20260831020147 | 65 | 229 | 0.0 | 0.0 | 0.00 | 0.04 | 0.04 | 68 | 1020.6 |
| 20260831015648 | 66 | 229 | 0.0 | 0.0 | 0.00 | 0.04 | 0.04 | 67 | 1020.6 |
| 20260831015148 | 66 | 229 | 0.0 | 0.0 | 0.00 | 0.04 | 0.04 | 67 | 1020.6 |
| 20260831014648 | 66 | 229 | 0.0 | 0.0 | 0.00 | 0.04 | 0.04 | 65 | 1020.6 |
| 20260831014418 | 67 | 229 | 0.0 | 0.0 | 0.00 | 0.04 | 0.04 | 65 | 1020.6 |
| 20260831013919 | 67 | 229 | 0.0 | 0.0 | 0.00 | 0.04 | 0.04 | 64 | 1020.6 |
| 20260831013149 | 67 | 271 | 0.0 | 0.0 | 0.00 | 0.04 | 0.04 | 63 | 1020.6 |
| 20260831012918 | 67 | 221 | 0.0 | 0.0 | 0.00 | 0.04 | 0.04 | 63 | 1020.6 |
| 20260831012148 | 68 | 221 | 0.0 | 0.0 | 0.00 | 0.04 | 0.04 | 63 | 1020.6 |
| 20260831011647 | 68 | 201 | 0.0 | 0.0 | 0.00 | 0.04 | 0.04 | 62 | 1020.6 |
| 20260831011146 | 68 | 202 | 0.0 | 0.0 | 0.00 | 0.04 | 0.04 | 61 | 1020.6 |
| 20260831010646 | 68 | 304 | 0.0 | 0.0 | 0.00 | 0.04 | 0.04 | 61 | 1020.6 |
| 20260831010147 | 69 | 120 | 0.0 | 0.0 | 0.00 | 0.04 | 0.04 | 60 | 1020.6 |
| 20260831005651 | 69 | 94 | 0.0 | 0.0 | 0.00 | 0.04 | 0.04 | 58 | 1020.6 |
| 20260831005647 | 69 | 292 | 0.0 | 0.0 | 0.00 | 0.04 | 0.04 | 59 | 1020.6 |
| 20260831004914 | 69 | 94 | 0.0 | 0.0 | 0.00 | 0.04 | 0.04 | 58 | 1020.6 |
| 20260831004144 | 69 | 94 | 0.0 | 0.0 | 0.00 | 0.04 | 0.04 | 57 | 1020.6 |
| 20260831003646 | 69 | 94 | 0.0 | 1.0 | 0.00 | 0.04 | 0.04 | 57 | 1020.6 |
| 20260831003144 | 70 | 94 | 0.0 | 1.0 | 0.00 | 0.04 | 0.04 | 56 | 1020.6 |
| 20260831002641 | 71 | 89 | 0.0 | 1.0 | 0.00 | 0.04 | 0.04 | 55 | 1020.6 |
| 20260831002143 | 71 | 124 | 0.0 | 3.0 | 0.00 | 0.04 | 0.04 | 55 | 1020.6 |
| 20260831001643 | 71 | 115 | 0.0 | 3.0 | 0.00 | 0.04 | 0.04 | 54 | 1020.6 |
| 20260831001141 | 71 | 30 | 0.0 | 3.0 | 0.00 | 0.04 | 0.04 | 53 | 1020.6 |
| 20260831000642 | 71 | 103 | 1.0 | 5.0 | 0.00 | 0.04 | 0.04 | 54 | 1020.6 |
| 20260831000140 | 71 | 116 | 1.0 | 5.0 | 0.00 | 0.04 | 0.04 | 53 | 1020.6 |
| 20260830235641 | 71 | 91 | 1.0 | 3.0 | 0.00 | 0.04 | 0.04 | 52 | 1020.6 |
| 20260830235141 | 71 | 81 | 1.0 | 2.0 | 0.00 | 0.04 | 0.04 | 55 | 1020.6 |
| 20260830234911 | 71 | 47 | 0.0 | 3.0 | 0.00 | 0.04 | 0.04 | 54 | 1020.6 |
| 20260830234410 | 72 | 92 | 0.0 | 3.0 | 0.00 | 0.04 | 0.04 | 51 | 1020.6 |
| 20260830233639 | 73 | 103 | 0.0 | 5.0 | 0.00 | 0.04 | 0.04 | 50 | 1020.6 |
| 20260830233140 | 75 | 118 | 0.0 | 3.0 | 0.00 | 0.04 | 0.04 | 47 | 1020.6 |
| 20260830233135 | 74 | 268 | 1.0 | 5.0 | 0.00 | 0.04 | 0.04 | 48 | 1020.6 |
| 20260830232136 | 75 | 91 | 0.0 | 3.0 | 0.00 | 0.04 | 0.04 | 45 | 1020.6 |
| 20260830231635 | 75 | 138 | 1.0 | 5.0 | 0.00 | 0.04 | 0.04 | 45 | 1020.6 |
| 20260830231140 | 75 | 79 | 4.0 | 7.0 | 0.00 | 0.04 | 0.04 | 47 | 1020.6 |
| 20260830231135 | 75 | 115 | 3.0 | 7.0 | 0.00 | 0.04 | 0.04 | 48 | 1020.6 |
| 20260830230134 | 76 | 79 | 3.0 | 7.0 | 0.00 | 0.04 | 0.04 | 47 | 1020.6 |
| 20260830225907 | 75 | 88 | 1.0 | 6.0 | 0.00 | 0.04 | 0.04 | 46 | 1020.6 |
| 20260830225131 | 74 | 83 | 0.0 | 4.0 | 0.00 | 0.04 | 0.04 | 47 | 1020.6 |
| 20260830224631 | 74 | 111 | 0.0 | 3.0 | 0.00 | 0.04 | 0.04 | 45 | 1020.6 |
| 20260830224132 | 75 | 86 | 0.0 | 3.0 | 0.00 | 0.04 | 0.04 | 42 | 1020.6 |
| 20260830223904 | 75 | 91 | 0.0 | 4.0 | 0.00 | 0.04 | 0.04 | 43 | 1020.6 |
| 20260830223132 | 75 | 115 | 0.0 | 4.0 | 0.00 | 0.04 | 0.04 | 43 | 1020.6 |
| 20260830222631 | 75 | 83 | 0.0 | 3.0 | 0.00 | 0.04 | 0.04 | 42 | 1020.6 |
| 20260830222133 | 74 | 91 | 0.0 | 3.0 | 0.00 | 0.04 | 0.04 | 42 | 1020.6 |
| 20260830221632 | 73 | 96 | 0.0 | 1.0 | 0.00 | 0.04 | 0.04 | 43 | 1020.6 |
| 20260830221131 | 72 | 221 | 0.0 | 2.0 | 0.00 | 0.04 | 0.04 | 46 | 1020.6 |
| 20260830220630 | 71 | 292 | 0.0 | 2.0 | 0.00 | 0.04 | 0.04 | 46 | 1020.6 |
| 20260830220132 | 71 | 101 | 0.0 | 1.0 | 0.00 | 0.04 | 0.04 | 47 | 1020.6 |
| 20260830215629 | 71 | 254 | 0.0 | 4.0 | 0.00 | 0.04 | 0.04 | 47 | 1020.6 |
| 20260830215402 | 70 | 272 | 1.0 | 5.0 | 0.00 | 0.04 | 0.04 | 47 | 1020.6 |
| 20260830214632 | 70 | 257 | 5.0 | 18.0 | 0.00 | 0.05 | 0.04 | 49 | 1020.6 |
| 20260830214129 | 69 | 261 | 9.0 | 19.0 | 0.00 | 0.05 | 0.04 | 50 | 1020.6 |
| 20260830213630 | 68 | 295 | 10.0 | 19.0 | 0.01 | 0.06 | 0.04 | 53 | 1020.6 |
| 20260830213130 | 67 | 306 | 12.0 | 27.0 | 0.02 | 0.06 | 0.04 | 54 | 1020.6 |
| 20260830212632 | 67 | 278 | 14.0 | 27.0 | 0.03 | 0.06 | 0.04 | 55 | 1020.6 |
| 20260830212130 | 66 | 309 | 14.0 | 25.0 | 0.04 | 0.06 | 0.04 | 56 | 1020.6 |
| 20260830211629 | 66 | 304 | 15.0 | 28.0 | 0.04 | 0.06 | 0.04 | 57 | 1020.6 |
| 20260830211129 | 67 | 284 | 17.0 | 32.0 | 0.04 | 0.06 | 0.04 | 55 | 1020.6 |
| 20260830210631 | 67 | 282 | 14.0 | 32.0 | 0.04 | 0.06 | 0.04 | 55 | 1020.6 |
| 20260830210130 | 67 | 311 | 10.0 | 31.0 | 0.04 | 0.06 | 0.04 | 54 | 1020.6 |
| 20260830205628 | 66 | 295 | 10.0 | 17.0 | 0.04 | 0.06 | 0.04 | 58 | 1020.6 |
| 20260830205129 | 65 | 281 | 13.0 | 21.0 | 0.04 | 0.06 | 0.04 | 61 | 1020.6 |
| 20260830204638 | 63 | 302 | 13.0 | 21.0 | 0.04 | 0.06 | 0.04 | 66 | 1020.6 |
| 20260830204632 | 64 | 295 | 14.0 | 21.0 | 0.04 | 0.06 | 0.04 | 64 | 1020.6 |
| 20260830203630 | 62 | 285 | 14.0 | 26.0 | 0.03 | 0.05 | 0.03 | 68 | 1020.6 |
| 20260830203128 | 62 | 279 | 17.0 | 29.0 | 0.02 | 0.04 | 0.02 | 67 | 1020.6 |
| 20260830202859 | 64 | 290 | 19.0 | 36.0 | 0.01 | 0.03 | 0.01 | 62 | 1020.6 |
| 20260830202127 | 69 | 282 | 18.0 | 36.0 | 0.00 | 0.02 | 0.00 | 49 | 1020.6 |
| 20260830201629 | 71 | 311 | 13.0 | 29.0 | 0.00 | 0.02 | 0.00 | 43 | 1020.6 |
| 20260830201128 | 74 | 286 | 9.0 | 16.0 | 0.00 | 0.02 | 0.00 | 57 | 1020.6 |
| 20260830200627 | 75 | 300 | 9.0 | 14.0 | 0.00 | 0.02 | 0.00 | 50 | 1020.6 |
| 20260830200127 | 75 | 293 | 8.0 | 12.0 | 0.00 | 0.02 | 0.00 | 47 | 1020.6 |
| 20260830195630 | 76 | 305 | 8.0 | 12.0 | 0.00 | 0.02 | 0.00 | 46 | 1020.6 |
| 20260830195127 | 77 | 313 | 8.0 | 11.0 | 0.00 | 0.02 | 0.00 | 47 | 1020.6 |
| 20260830194628 | 77 | 262 | 9.0 | 17.0 | 0.00 | 0.02 | 0.00 | 43 | 1020.6 |
| 20260830194126 | 77 | 311 | 7.0 | 17.0 | 0.00 | 0.02 | 0.00 | 44 | 1020.6 |
| 20260830193628 | 79 | 293 | 1.0 | 16.0 | 0.00 | 0.02 | 0.00 | 39 | 1020.6 |
| 20260830193125 | 80 | 304 | 1.0 | 4.0 | 0.00 | 0.02 | 0.00 | 38 | 1020.6 |
| 20260830192625 | 80 | 96 | 2.0 | 6.0 | 0.00 | 0.02 | 0.00 | 39 | 1020.6 |
| 20260830192358 | 80 | 86 | 2.0 | 8.0 | 0.00 | 0.02 | 0.00 | 39 | 1020.6 |
| 20260830191856 | 80 | 101 | 2.0 | 8.0 | 0.00 | 0.02 | 0.00 | 38 | 1020.6 |
| 20260830191124 | 81 | 84 | 2.0 | 5.0 | 0.00 | 0.02 | 0.00 | 38 | 1020.6 |
| 20260830190626 | 80 | 94 | 2.0 | 7.0 | 0.00 | 0.02 | 0.00 | 38 | 1020.6 |
| 20260830190123 | 80 | 109 | 1.0 | 7.0 | 0.00 | 0.02 | 0.00 | 39 | 1020.6 |
| 20260830185624 | 80 | 125 | 3.0 | 7.0 | 0.00 | 0.02 | 0.00 | 39 | 1020.6 |
| 20260830185123 | 79 | 294 | 3.0 | 7.0 | 0.00 | 0.02 | 0.00 | 39 | 1020.6 |
| 20260830184624 | 80 | 100 | 2.0 | 7.0 | 0.00 | 0.02 | 0.00 | 38 | 1020.6 |
| 20260830184355 | 80 | 116 | 1.0 | 6.0 | 0.00 | 0.02 | 0.00 | 38 | 1020.6 |
| 20260830183854 | 80 | 236 | 3.0 | 8.0 | 0.00 | 0.02 | 0.00 | 38 | 1020.6 |
| 20260830183354 | 80 | 89 | 3.0 | 9.0 | 0.00 | 0.02 | 0.00 | 37 | 1020.6 |